Météo Nord-Pas-de-Calais   La météo au plus près de chez vous

Station météorologique

Observations météo à Bernay (27056)

27056003 166 m Dernier relevé à 04:00
11.1°C
Humidité 94 % Vent 3.2 km/h

Journée consultée

Dimanche 6 Septembre 2026

Synthèse de la journée

Périodes de référence en UTC

Température maximale

22.4°C

à 18:00

06h 06h

Température minimale

11°C

à 03:48

18h 18h

Rafale maximale

14 km/h

à 02:18

00h 00h

Précipitations

0.4 mm

Cumul quotidien

06h 06h

Ensoleillement

0h 0 mins

Durée quotidienne

00h 00h

Graphiques de la journée

Heure locale Réduire

Données détaillées

Relevés météo

Pas de 6 minutes Afficher les relevés infra-horaires
Relevés météo détaillés à Bernay pour le Dimanche 6 Septembre 2026
Heure Température °C Point de rosée °C Humidité % Vent moyen (raf.), km/h Précipitations mm Ensoleillement min Rayonnement global W/m²
04:00 11.1 °C 10.8 °C 98 % 6 km/h (7 km/h) 0 mm0 mm 0 min 0 W/m²
03:54 11 °C 10.5 °C 97 % 5 km/h (6 km/h) 0 mm0 mm 0 min 0 W/m²
03:48 11 °C 10.4 °C 96 % 4 km/h (6 km/h) 0.3 mm0 mm 0 min 0 W/m²
03:42 11.1 °C 10.3 °C 95 % 5 km/h (6 km/h) 0.1 mm0 mm 0 min 0 W/m²
03:36 11.3 °C 10.4 °C 94 % 6 km/h (7 km/h) 0 mm0 mm 0 min 0 W/m²
03:30 11.7 °C 10.8 °C 94 % 5 km/h (7 km/h) 0 mm0 mm 0 min 0 W/m²
03:24 11.9 °C 11.1 °C 95 % 4 km/h (6 km/h) 0 mm0 mm 0 min 0 W/m²
03:18 11.9 °C 11 °C 94 % 3 km/h (5 km/h) 0 mm0 mm 0 min 0 W/m²
03:12 12 °C 10.9 °C 93 % 3 km/h (6 km/h) 0 mm0 mm 0 min 0 W/m²
03:06 12.2 °C 11.3 °C 94 % 3 km/h (6 km/h) 0 mm0 mm 0 min 0 W/m²
03:00 12.2 °C 11.3 °C 94 % 3 km/h (7 km/h) 0 mm0 mm 0 min 0 W/m²
02:54 12.3 °C 11.2 °C 93 % 6 km/h (9 km/h) 0 mm0 mm 0 min 0 W/m²
02:48 12.5 °C 11.4 °C 93 % 8 km/h (10 km/h) 0 mm0 mm 0 min 0 W/m²
02:42 12.6 °C 11.3 °C 92 % 8 km/h (10 km/h) 0 mm0 mm 0 min 0 W/m²
02:36 12.7 °C 11.6 °C 93 % 7 km/h (10 km/h) 0 mm0 mm 0 min 0 W/m²
02:30 12.7 °C 11.4 °C 92 % 6 km/h (10 km/h) 0 mm0 mm 0 min 0 W/m²
02:24 13 °C 11.9 °C 93 % 9 km/h (14 km/h) 0 mm0 mm 0 min 0 W/m²
02:18 12.7 °C 11.9 °C 95 % 10 km/h (14 km/h) 0 mm0 mm 0 min 0 W/m²
02:12 12.4 °C 11.8 °C 96 % 10 km/h (12 km/h) 0 mm0 mm 0 min 0 W/m²
02:06 12.1 °C 11.5 °C 96 % 10 km/h (14 km/h) 0 mm0 mm 0 min 0 W/m²
02:00 11.8 °C 10.9 °C 94 % 10 km/h (14 km/h) 0 mm0 mm 0 min 0 W/m²
01:54 11.9 °C 10.6 °C 92 % 8 km/h (11 km/h) 0 mm0 mm 0 min 0 W/m²
01:48 12.1 °C 11.2 °C 94 % 6 km/h (9 km/h) 0 mm0 mm 0 min 0 W/m²
01:42 12.2 °C 10.8 °C 91 % 7 km/h (9 km/h) 0 mm0 mm 0 min 0 W/m²
01:36 12.4 °C 10.8 °C 90 % 8 km/h (9 km/h) 0 mm0 mm 0 min 0 W/m²
01:30 12.6 °C 11.2 °C 91 % 8 km/h (9 km/h) 0 mm0 mm 0 min 0 W/m²
01:24 12.6 °C 11.3 °C 92 % 7 km/h (8 km/h) 0 mm0 mm 0 min 0 W/m²
01:18 12.3 °C 11.2 °C 93 % 6 km/h (8 km/h) 0 mm0 mm 0 min 0 W/m²
01:12 12.1 °C 11.2 °C 94 % 5 km/h (7 km/h) 0 mm0 mm 0 min 0 W/m²
01:06 11.9 °C 10.6 °C 92 % 4 km/h (6 km/h) 0 mm0 mm 0 min 0 W/m²
01:00 11.9 °C 10.5 °C 91 % 3 km/h (5 km/h) 0 mm0 mm 0 min 0 W/m²
00:54 12.1 °C 10.7 °C 91 % 3 km/h (4 km/h) 0 mm0 mm 0 min 0 W/m²
00:48 12.4 °C 11.1 °C 92 % 3 km/h (4 km/h) 0 mm0 mm 0 min 0 W/m²
00:42 12.6 °C 11.2 °C 91 % 3 km/h (4 km/h) 0 mm0 mm 0 min 0 W/m²
00:36 12.7 °C 10.8 °C 88 % 3 km/h (4 km/h) 0 mm0 mm 0 min 0 W/m²
00:30 12.8 °C 10.7 °C 87 % 3 km/h (4 km/h) 0 mm0 mm 0 min 0 W/m²
00:24 12.8 °C 10.9 °C 88 % 0 km/h (4 km/h) 0 mm0 mm 0 min 0 W/m²
00:18 12.8 °C 10.7 °C 87 % 0 km/h (3 km/h) 0 mm0 mm 0 min 0 W/m²
00:12 13 °C 10.5 °C 85 % 0 km/h (3 km/h) 0 mm0 mm 0 min 0 W/m²
00:06 13.1 °C 10.5 °C 84 % 2 km/h (5 km/h) 0 mm0 mm 0 min 0 W/m²
00:00 13.4 °C 10.4 °C 82 % 5 km/h (8 km/h) 0 mm0 mm 0 min 0 W/m²

Données via Météo-France

Relevés météo à Bernay

Cette page rassemble les observations de la station de Bernay : température, humidité, vent, précipitations et pression atmosphérique. Les graphiques facilitent le suivi de la journée, tandis que le tableau donne accès aux mesures horaires et infra-horaires disponibles.

Pour replacer ces mesures dans leur contexte, consultez la climatologie de Bernay ainsi que ses normales et records. Retrouvez aussi la carte des observations météo en temps réel.